Location: Tamazert
(32.6352°N, 5.2072°W)
Time: 02:03:33
(UTC+00:00)

Courier 1B - Visible Passes

Search period start: 06 December 2023 00:00
Search period end: 16 December 2023 00:00
Orbit: 962 x 1208 km, 28.3° (Epoch: 05 December)

Date Brightness Start Highest point End Pass type
(mag) Time Alt. Az. Time Alt. Az. Time Alt. Az.
06 Dec 10.3 06:22:12 10° S 06:25:21 13° SSE 06:28:27 10° SE visible
08 Dec 9.9 06:25:53 10° SSW 06:31:24 23° SSE 06:36:40 10° ESE visible
09 Dec 10.1 05:32:55 10° SSW 05:37:39 18° SSE 05:42:15 10° ESE visible
10 Dec 10.2 04:40:29 10° S 04:43:54 13° SSE 04:47:14 10° ESE visible
10 Dec 9.3 06:30:53 10° SW 06:37:29 35° SSE 06:43:44 10° E visible
11 Dec 9.4 05:37:24 10° SSW 05:43:41 29° SSE 05:49:42 10° E visible
12 Dec 9.6 04:44:26 11° SSW 04:49:53 23° SSE 04:55:28 10° ESE visible
12 Dec 8.7 06:36:29 10° WSW 06:43:37 47° SSE 06:50:22 10° E visible
13 Dec 9.8 03:54:47 17° SSE 03:56:05 18° SSE 04:00:53 10° ESE visible
13 Dec 8.9 05:42:42 10° SW 05:49:46 41° SSE 05:56:29 10° E visible
14 Dec 10.3 03:05:00 11° SE 03:05:00 11° SE 03:05:41 10° ESE visible
14 Dec 9.0 04:51:55 22° SSW 04:55:55 35° SSE 05:02:30 10° E visible
14 Dec 8.4 06:42:24 10° WSW 06:49:50 58° S 06:56:49 10° E visible
15 Dec 9.2 04:01:59 29° SSE 04:02:05 29° SSE 04:08:22 10° E visible
15 Dec 8.4 05:48:55 12° WSW 05:55:56 53° SSE 06:03:00 10° E visible
